Location: Barcelona
(41.3830°N, 2.1830°E)
Time: 08:44:24
(UTC+02:00)

ISS - Pass Details

Date: 19 July 2017
Orbit: 400 x 408 km, 51.6° (Epoch: 21 July)

Event Time Altitude Azimuth Distance (km) Brightness Sun altitude
Rises 05:19:13 0° 310° (NW) 2,317 -0.1 -12.2°
Reaches altitude 10° 05:21:41 10° 328° (NNW) 1,457 -0.9 -11.9°
Maximum altitude 05:24:10 20° 18° (NNE) 1,011 -1.0 -11.6°
Drops below altitude 10° 05:26:39 10° 67° (ENE) 1,458 0.3 -11.2°
Sets 05:29:07 0° 86° (E) 2,317 1.0 -10.9°
